Location: Unspecified
(0.0000°N, 0.0000°E)
Time: 07:35:30
(UTC+00:00)

Vanguard 2 Rocket - Pass Details

Date: 08 October 2023
Orbit: 552 x 3312 km, 32.9° (Epoch: 06 December)

Event Time Altitude Azimuth Distance (km) Brightness Sun altitude
Rises 19:33:57 0° 265° (W) 6,296 12.5 -26.4°
Reaches altitude 10° 19:41:49 10° 242° (WSW) 4,574 11.3 -28.4°
Maximum altitude 19:46:53 13° 217° (SW) 3,771 10.5 -29.7°
Drops below altitude 10° 19:51:02 10° 190° (S) 3,571 10.1 -30.7°
Sets 19:55:39 0° 163° (SSE) 4,003 10.1 -31.8°
